Location: Peterborough
(44.3091°N, 78.3197°W)
Time: 16:03:34
(UTC-04:00)

Transit 2A - Pass Details

Date: 25 March 2023
Orbit: 591 x 964 km, 66.7° (Epoch: 04 June)

Event Time Altitude Azimuth Distance (km) Brightness Sun altitude
Rises 09:13:51 0° 289° (WNW) 3,401 8.7 21.4°
Reaches altitude 10° 09:18:31 10° 323° (NW) 2,563 8.3 22.2°
Maximum altitude 09:20:13 11° 340° (NNW) 2,510 8.4 22.5°
Drops below altitude 10° 09:21:57 10° 357° (N) 2,622 8.6 22.8°
Sets 09:26:56 0° 31° (NNE) 3,628 9.6 23.6°
